Погода в Сан-Луисе

Испания     39°50′59″N   4°15′34″E
темп.,
°C
ветер,
м/с
пор.,
м/с
влажн.,
%
обл.,
%
осадки,
мм/ч
давл.,
гПа
погр.,
м
7 июля, чт
чт723:00+25с69620 0.0 1019389
02:00+25с69640 0.0 1019333
05:00+25с611710 0.0 1018542
08:00+25с811662 0.0 1020689
11:00+26ссв912610 0.0 1020651
14:00+25св911580 0.0 1021686
17:00+26ссв67640 0.0 1020306
20:00+26сз68630 0.0 1020228
8 июля, пт
пт823:00+25з68720 0.0 1020311
02:00+25з77730 0.0 1020331
05:00+25зсз77730 0.0 1020474
08:00+25сз69730 0.0 1021633
11:00+26сз56660 0.0 1021209
14:00+27сз56650 0.0 1020252
17:00+27ссз1013530 0.0 1020544
20:00+26с79540 0.0 1019324
9 июля, сб
сб923:00+25ссз35590 0.0 1020323
02:00+25с79650 0.0 1020749
05:00+24с78800 0.0 1020388
08:00+25ссв56770 0.0 1020413
11:00+25всв55740 0.0 1021346
14:00+26св55710 0.0 1021250
17:00+26св56560 0.0 1020230
20:00+26св33570 0.0 101988
10 июля, вс
вс1023:00+26зсз34620 0.0 101981
02:00+25сз45580 0.0 1019201
05:00+25ссз35610 0.0 1018201
08:00+25ссз45680 0.0 1018251
11:00+27ссз23650 0.0 101762
14:00+27всв12590 0.0 1017235
17:00+26в33580 0.0 1017330
20:00+26ю22600 0.0 1016139
11 июля, пн
пн1123:00+26з45660 0.0 101690
02:00+26ссз33570 0.0 101678
05:00+25ссз34560 0.0 1015145
08:00+25с34630 0.0 1015213
11:00+26всв22620 0.0 1015151
14:00+26вюв22610 0.0 1016275
17:00+26в22610 0.0 1016290
20:00+26всв33640 0.0 1015196